Time,TemperatureF,DewpointF,PressureIn,WindDirection,WindDirectionDegrees,WindSpeedMPH,WindSpeedGustMPH,Humidity,HourlyPrecipIn,Conditions,Clouds,dailyrainin,SoftwareType,DateUTC
2013-05-11 00:01:00,68.0,47.0,-100.00,SSE,150,3.0,5.0,46,-99.99,,,-99.99,,2013-05-11 07:01:00,
2013-05-11 00:10:00,67.0,47.0,-100.00,East,95,3.0,6.0,48,-99.99,,,-99.99,,2013-05-11 07:10:00,
2013-05-11 00:11:00,68.0,47.0,-100.00,SSE,150,3.0,5.0,46,-99.99,,,-99.99,,2013-05-11 07:11:00,
2013-05-11 01:01:00,67.0,47.0,-100.00,East,95,3.0,6.0,48,-99.99,,,-99.99,,2013-05-11 08:01:00,
2013-05-11 02:01:00,65.0,46.0,-100.00,East,80,3.0,6.0,50,-99.99,,,-99.99,,2013-05-11 09:01:00,
2013-05-11 02:11:00,65.0,46.0,-100.00,East,80,3.0,6.0,50,-99.99,,,-99.99,,2013-05-11 09:11:00,
2013-05-11 02:20:00,64.0,47.0,-100.00,East,100,3.0,5.0,53,-99.99,,,-99.99,,2013-05-11 09:20:00,
2013-05-11 03:03:00,64.0,47.0,-100.00,East,100,3.0,5.0,53,-99.99,,,-99.99,,2013-05-11 10:03:00,
2013-05-11 03:12:00,64.0,47.0,-100.00,East,100,3.0,5.0,53,-99.99,,,-99.99,,2013-05-11 10:12:00,
2013-05-11 04:02:00,63.0,46.0,-100.00,ESE,105,1.0,3.0,53,-99.99,,,-99.99,,2013-05-11 11:02:00,
2013-05-11 04:11:00,63.0,46.0,-100.00,ESE,105,1.0,3.0,53,-99.99,,,-99.99,,2013-05-11 11:11:00,
2013-05-11 05:01:00,65.0,44.0,-100.00,SE,125,1.0,5.0,46,-99.99,,,-99.99,,2013-05-11 12:01:00,
2013-05-11 05:11:00,65.0,44.0,-100.00,SE,125,1.0,5.0,46,-99.99,,,-99.99,,2013-05-11 12:11:00,
2013-05-11 06:01:00,64.0,45.0,-100.00,East,95,3.0,5.0,49,-99.99,,,-99.99,,2013-05-11 13:01:00,
2013-05-11 06:11:00,64.0,45.0,-100.00,East,95,3.0,5.0,49,-99.99,,,-99.99,,2013-05-11 13:11:00,
2013-05-11 07:02:00,62.0,48.0,-100.00,East,100,3.0,5.0,60,-99.99,,,-99.99,,2013-05-11 14:02:00,
2013-05-11 07:10:00,66.0,45.0,-100.00,NE,40,2.0,5.0,46,-99.99,,,-99.99,,2013-05-11 14:10:00,
2013-05-11 07:11:00,62.0,48.0,-100.00,East,100,3.0,5.0,60,-99.99,,,-99.99,,2013-05-11 14:11:00,
2013-05-11 08:01:00,66.0,45.0,-100.00,NE,40,2.0,5.0,46,-99.99,,,-99.99,,2013-05-11 15:01:00,
2013-05-11 09:02:00,69.0,46.0,-100.00,ESE,115,1.0,2.0,43,-99.99,,,-99.99,,2013-05-11 16:02:00,
2013-05-11 09:12:00,69.0,46.0,-100.00,ESE,115,1.0,2.0,43,-99.99,,,-99.99,,2013-05-11 16:12:00,
2013-05-11 09:20:00,73.0,45.0,-100.00,SSE,160,1.0,3.0,36,-99.99,,,-99.99,,2013-05-11 16:20:00,
2013-05-11 10:02:00,73.0,45.0,-100.00,SSE,160,1.0,3.0,36,-99.99,,,-99.99,,2013-05-11 17:02:00,
2013-05-11 10:12:00,73.0,45.0,-100.00,SSE,160,1.0,3.0,36,-99.99,,,-99.99,,2013-05-11 17:12:00,
2013-05-11 11:01:00,75.0,46.0,-100.00,SE,130,1.0,5.0,35,-99.99,,,-99.99,,2013-05-11 18:01:00,
2013-05-11 11:11:00,75.0,46.0,-100.00,SE,130,1.0,5.0,35,-99.99,,,-99.99,,2013-05-11 18:11:00,
2013-05-11 12:02:00,80.0,50.0,-100.00,ENE,60,6.0,7.0,35,-99.99,,,-99.99,,2013-05-11 19:02:00,
2013-05-11 12:11:00,80.0,50.0,-100.00,ENE,60,6.0,7.0,35,-99.99,,,-99.99,,2013-05-11 19:11:00,
2013-05-11 13:01:00,83.0,47.0,-100.00,NE,40,6.0,9.0,28,-99.99,,,-99.99,,2013-05-11 20:01:00,
2013-05-11 13:12:00,83.0,47.0,-100.00,NE,40,6.0,9.0,28,-99.99,,,-99.99,,2013-05-11 20:12:00,
2013-05-11 14:02:00,85.0,46.0,-100.00,East,85,7.0,10.0,25,-99.99,,,-99.99,,2013-05-11 21:02:00,
2013-05-11 14:10:00,89.0,44.0,-100.00,West,275,7.0,17.0,20,-99.99,,,-99.99,,2013-05-11 21:10:00,
2013-05-11 14:11:00,85.0,46.0,-100.00,East,85,7.0,10.0,25,-99.99,,,-99.99,,2013-05-11 21:11:00,
2013-05-11 15:02:00,89.0,44.0,-100.00,West,275,7.0,17.0,20,-99.99,,,-99.99,,2013-05-11 22:02:00,
2013-05-11 16:02:00,90.0,42.0,-100.00,South,185,2.0,9.0,18,-99.99,,,-99.99,,2013-05-11 23:02:00,
2013-05-11 16:12:00,90.0,42.0,-100.00,South,185,2.0,9.0,18,-99.99,,,-99.99,,2013-05-11 23:12:00,
2013-05-11 16:20:00,89.0,46.0,-100.00,ESE,110,5.0,7.0,22,-99.99,,,-99.99,,2013-05-11 23:20:00,
2013-05-11 17:01:00,89.0,46.0,-100.00,ESE,110,5.0,7.0,22,-99.99,,,-99.99,,2013-05-12 00:01:00,
2013-05-11 17:11:00,89.0,46.0,-100.00,ESE,110,5.0,7.0,22,-99.99,,,-99.99,,2013-05-12 00:11:00,
2013-05-11 18:01:00,90.0,48.0,-100.00,East,100,7.0,9.0,23,-99.99,,,-99.99,,2013-05-12 01:01:00,
2013-05-11 18:11:00,90.0,48.0,-100.00,East,100,7.0,9.0,23,-99.99,,,-99.99,,2013-05-12 01:11:00,
2013-05-11 19:01:00,83.0,55.0,-100.00,SE,140,6.0,9.0,38,-99.99,,,-99.99,,2013-05-12 02:01:00,
2013-05-11 20:01:00,80.0,56.0,-100.00,SE,135,3.0,8.0,43,-99.99,,,-99.99,,2013-05-12 03:01:00,
2013-05-11 20:11:00,80.0,56.0,-100.00,SE,135,3.0,8.0,43,-99.99,,,-99.99,,2013-05-12 03:11:00,
2013-05-11 21:02:00,-999.0,-99.9,-100.00,South,190,6.0,10.0,46,-99.99,,,-99.99,,2013-05-12 04:02:00,
2013-05-11 21:10:00,73.0,51.0,-100.00,SW,220,3.0,6.0,45,-99.99,,,-99.99,,2013-05-12 04:10:00,
2013-05-11 21:12:00,74.0,52.0,-100.00,South,190,6.0,10.0,46,-99.99,,,-99.99,,2013-05-12 04:12:00,
2013-05-11 22:02:00,73.0,51.0,-100.00,SW,220,3.0,6.0,45,-99.99,,,-99.99,,2013-05-12 05:02:00,
2013-05-11 22:10:00,69.0,52.0,-100.00,South,190,1.0,3.0,54,-99.99,,,-99.99,,2013-05-12 05:10:00,
2013-05-11 23:01:00,69.0,52.0,-100.00,South,190,1.0,3.0,54,-99.99,,,-99.99,,2013-05-12 06:01:00,
2013-05-11 23:20:00,70.0,51.0,-100.00,WSW,250,0.0,1.0,50,-99.99,,,-99.99,,2013-05-12 06:20:00,